DELTA 1 DEB, 12542

Orbit data source: Space-Track

DELTA 1 DEB, 12542 is space debris in SSO originally from a launch on Thu, 29 Jul 1976 UTC launched from the Air Force Western Test Range (AFWTR). Debris objects in space refer to the collection of defunct objects orbiting the Earth. Examples of debris include non-operational satellites, rocket bodies, and fragments generated from explosions, collisions, or faulty payload assembly.

Loading next visibility...
Identifier
12542, 1976-077DX
Orbit
SSO
Country
Flag of USUS
Related business
Manufacturer
Unknown
Mission
Spacecraft
Bus & Motor
Unknown
Mass
Unknown
Launch date (UTC)
1976-07-29 (50 years ago)
Launch vehicle
Unknown
Launch site
Air Force Western Test Range (AFWTR)
Object type
Payload
Rocket body
Debris
Shape & HBR
Unknown shape, 0.1 m
Radar Cross Section
Medium (>0.1 m² and <1 m²)

Expand to show TLE details & history
Last TLE update: 8 hours ago

TLE from 8 hours ago
0 DELTA 1 DEB
1 12542U 76077DX  26171.45906874  .00000120  00000-0  10509-2 0  9991
2 12542 101.9491 155.4014 0058946 278.6615 235.2872 12.52397521 78492
Epoch: 2026-06-20T11:01Z
TLE epoch observation values (Epoch: 2026-06-20T11:01:03.539Z)
Latitude
26.01703°
Longitude
-92.63688°
Altitude
1,483.819 km
Speed
7.112 km/s
True Right ascension
22h 45m 12s
True Declination
25° 53' 39"
Sunlit
Object was in daylight at epoch
Visualization orbit readout
Latitude
Unknown
Longitude
Unknown
Altitude
Unknown
Speed
Unknown
Apparent Right ascension
Unknown
Apparent Declination
Unknown
Sunlit
N/A
Visualization observer readout
Local Sidereal Time
06:14:51
Azimuth
Unknown
Elevation
Unknown
Doppler factor
Unknown
Orbital elements
Apogee altitude
1,498.194 km
Perigee altitude
1,405.882 km
Semi-major axis
7,830.175 km
Eccentricity
0.00589
Inclination
101.9491°
RAAN
155.4014°
Arg. of periapsis
278.6615°
True anomaly
234.73428°
Mean anomaly
235.2872°
Eccentric anomaly
235.01051°
Mean motion
3.13246 °/min
Orbital period
114.93 mins
BSTAR
0.0010509
Loading maneuver chart data...
Computing Atmospheric mass density...
Loading historical data...
Loading historical data...
Loading historical data...
Loading historical data...
Loading historical data...
Loading historical data...
Loading historical data...

Documentation

Showing up to 5 results
|